Theta_e
296 296 296 295 295 295 295 295 294 294 293 293 293 293 292 292 292 292 292 291 291 291 290 290 290 290 289 288 287 287 286 286 285 285 284 284 284 284 284 284 283 283 283 283 282 282 282 283 283 283 283 283 282 282 281 280 279 278 278 277 277 277 277 277 277 277 277 277 277 277 277 277 276 277 277 276 277 277 277 277 277 277 277 277 277
297 297 295 294 294 294 295 294 294 293 293 292 292 292 292 292 292 292 291 291 291 291 290 290 290 290 289 288 287 286 286 286 285 285 284 284 284 284 284 283 283 282 283 283 282 282 282 282 282 282 282 282 282 281 280 279 278 277 277 276 276 276 276 276 276 275 275 275 276 275 275 275 275 275 276 276 276 276 277 277 276 276 276 276 276
297 296 294 294 294 294 293 293 293 293 292 292 292 292 292 292 291 291 291 290 290 290 290 290 289 289 288 287 287 286 286 285 285 285 284 284 284 283 283 283 283 283 283 282 282 282 282 282 282 282 282 281 281 280 280 278 277 277 276 276 275 275 275 275 274 274 274 274 274 275 275 275 275 275 275 275 275 276 276 276 276 276 276 277 277
295 294 294 294 294 293 293 293 293 292 292 292 292 292 292 291 291 291 290 290 290 290 290 289 289 289 288 287 287 286 285 285 284 284 284 284 284 283 283 282 282 283 283 283 282 282 282 282 282 282 282 281 281 280 279 278 277 276 275 275 274 274 274 274 274 274 273 273 274 274 274 275 275 275 275 276 276 276 276 276 276 276 277 277 277
294 294 294 294 293 293 293 292 292 292 292 292 292 292 292 291 290 290 290 289 289 289 289 288 288 288 288 287 287 286 285 285 284 284 284 284 284 283 283 282 282 282 282 282 283 282 282 282 282 282 282 281 280 279 278 277 276 275 275 274 274 274 274 274 274 273 273 273 273 274 274 275 275 275 275 276 276 276 276 276 277 277 277 277 277
294 294 294 293 293 292 292 292 292 292 292 292 292 292 291 290 290 289 289 289 289 288 288 288 288 288 288 288 287 286 285 285 284 284 284 283 283 283 282 282 282 282 282 282 282 282 282 282 282 282 282 281 280 279 278 277 276 275 275 274 274 274 274 274 274 274 273 273 274 274 275 275 275 275 276 276 276 276 277 277 277 277 277 277 277
294 294 293 292 292 292 292 292 292 292 292 292 291 291 291 290 289 289 289 288 288 288 287 287 287 288 288 287 286 286 285 284 284 283 283 283 283 282 282 281 281 281 281 281 282 282 282 282 282 281 281 281 280 279 278 277 276 275 275 275 274 274 274 274 274 274 274 274 274 275 275 275 276 276 276 276 276 277 277 277 277 277 277 277 277
294 293 292 291 292 292 292 292 292 292 292 291 291 290 290 290 289 289 288 288 288 287 287 287 287 287 287 286 286 285 285 284 283 283 283 282 282 281 281 281 280 280 281 281 281 281 281 281 281 281 281 280 280 279 278 277 276 275 275 274 274 274 274 274 274 274 274 275 275 275 276 276 276 276 277 277 277 277 277 277 277 277 277 277 277
293 293 291 291 292 292 292 292 292 291 291 290 290 290 290 289 289 288 288 287 287 287 287 287 286 286 285 285 284 284 284 283 283 283 282 282 281 280 280 280 280 280 280 280 280 280 280 280 280 280 280 279 279 278 277 277 276 275 275 274 274 274 275 275 275 275 275 275 276 276 276 277 277 277 277 278 278 278 277 277 277 277 277 277 277
293 292 291 292 292 292 291 291 291 291 290 290 290 289 289 289 288 288 287 287 287 286 286 286 285 285 284 284 283 283 283 282 282 283 283 282 281 280 280 280 280 280 280 279 278 278 279 279 279 279 278 278 277 277 276 276 276 275 275 275 275 275 275 275 276 276 276 276 276 277 277 277 277 277 278 277 277 277 277 277 277 276 277 277 277
293 292 292 293 292 291 291 291 290 290 290 290 290 289 289 288 288 287 287 286 286 286 285 285 285 284 284 284 283 283 282 282 282 282 282 282 281 280 280 280 279 279 279 279 278 277 277 277 277 277 277 277 276 276 276 276 275 275 276 276 276 276 276 276 276 276 277 277 277 277 277 278 278 277 277 277 277 277 276 276 276 277 277 277 277
293 293 293 292 291 290 290 290 290 290 289 289 289 289 288 288 287 286 286 286 285 285 285 284 284 284 284 283 283 282 282 282 282 282 281 281 281 280 280 279 279 278 278 278 278 277 276 276 276 276 276 276 276 275 276 276 277 277 277 277 278 278 278 277 277 277 277 277 277 278 277 277 277 277 277 276 276 276 276 276 277 277 277 277 277
292 292 292 291 291 290 290 290 289 289 289 289 288 288 287 287 287 286 285 285 285 284 284 284 284 283 283 282 282 282 281 281 281 281 281 280 280 280 279 279 279 278 278 277 277 276 275 275 275 275 276 276 276 275 276 277 277 277 277 277 277 277 277 277 278 278 278 278 277 277 277 277 276 276 276 276 276 276 277 277 277 277 277 278 277
291 291 291 290 290 290 289 289 289 289 288 288 288 287 287 287 286 286 285 284 284 284 283 283 283 283 282 282 281 281 280 280 280 280 280 280 279 279 279 279 278 278 277 277 276 276 275 275 276 276 275 275 275 275 275 275 275 275 276 276 276 276 276 276 276 277 277 277 276 276 276 276 276 276 276 276 276 277 277 277 277 277 276 276 275
290 290 289 289 289 289 289 289 289 288 288 287 287 286 286 286 285 285 284 284 283 283 283 282 282 282 281 281 280 280 280 279 280 280 281 280 279 278 278 277 277 277 276 276 276 276 276 276 276 276 275 275 275 275 274 274 274 274 274 274 274 275 275 275 275 275 275 275 275 275 276 276 276 276 277 277 277 277 277 277 276 275 274 273 273
290 290 289 288 288 288 288 288 288 287 287 287 286 286 285 285 284 284 284 283 283 282 282 282 281 281 281 280 280 279 279 279 280 281 281 281 279 278 277 277 276 276 275 275 275 275 276 276 276 276 276 275 275 275 274 274 274 274 274 274 275 275 275 275 275 275 276 276 276 276 277 277 277 277 277 277 277 277 276 275 274 273 272 272 272
290 290 289 289 288 288 288 287 287 287 287 286 285 285 284 284 284 283 283 282 282 281 281 281 281 280 280 279 279 279 278 278 280 281 282 282 280 278 276 276 275 275 275 275 275 275 276 276 276 276 275 275 274 275 275 275 275 275 275 275 275 275 274 275 275 276 276 276 276 276 276 276 276 276 276 276 276 275 273 272 272 271 271 271 271
290 290 289 289 288 288 288 287 287 286 286 285 285 284 283 283 283 282 282 282 281 281 280 280 280 280 279 279 279 278 278 278 280 282 282 282 280 278 276 275 275 275 275 275 275 276 276 276 275 275 275 274 274 275 276 276 276 276 275 275 275 275 275 275 276 276 275 275 274 274 274 274 274 274 274 274 273 272 271 271 270 270 270 270 270
290 290 290 289 288 287 287 287 287 286 285 285 284 283 283 282 282 282 281 281 281 280 280 279 279 279 278 278 278 278 278 278 280 282 283 282 281 278 276 276 275 275 276 276 276 276 275 275 275 275 274 274 274 276 276 277 276 276 275 275 275 275 276 276 275 274 274 273 273 273 273 273 273 273 272 271 270 270 269 269 269 269 269 270 270
290 290 290 289 289 288 287 287 287 286 285 285 284 283 283 282 281 281 280 280 280 279 279 279 278 278 277 277 277 277 277 277 280 282 283 283 281 278 276 276 276 276 276 276 275 275 275 275 275 275 274 274 275 276 277 277 276 276 275 275 275 276 275 275 274 274 273 273 273 273 272 272 271 271 270 270 269 269 268 269 269 269 269 270 270
291 290 290 289 289 288 288 287 287 286 285 284 283 283 282 281 281 280 280 279 279 278 278 277 277 277 276 276 276 276 276 277 279 282 283 283 281 279 277 276 276 276 276 275 275 275 274 274 275 275 276 276 276 277 277 277 276 276 275 276 276 275 275 274 274 274 274 273 273 272 271 271 270 270 269 269 268 268 268 268 269 269 270 270 270
290 290 290 289 289 288 288 287 286 285 285 284 283 282 281 281 280 280 279 278 278 277 277 276 276 275 275 275 275 275 276 276 278 281 283 283 282 280 278 277 276 276 276 275 275 274 274 274 274 275 276 277 277 276 276 276 276 276 276 276 275 275 275 274 274 273 273 272 271 270 270 269 269 268 268 267 267 268 268 268 269 269 270 270 270
290 290 289 289 289 288 288 287 286 285 284 283 282 282 281 280 279 279 278 277 277 276 275 275 275 275 274 274 274 275 275 275 277 280 283 283 283 281 279 278 277 276 276 275 274 274 274 273 273 274 276 276 276 276 276 276 276 276 275 275 274 274 274 273 273 272 271 270 269 269 269 268 267 267 267 267 267 268 268 268 269 269 269 269 269
289 290 289 289 288 288 288 287 286 285 284 283 282 281 280 279 278 278 277 276 276 275 275 274 274 274 274 273 273 274 274 274 276 279 282 283 283 281 279 278 277 276 275 275 274 274 274 274 274 275 275 275 275 275 276 276 275 275 274 273 273 273 272 272 271 270 269 268 267 267 267 267 266 266 267 267 267 267 268 268 268 268 268 268 268
289 289 288 288 288 288 287 286 285 285 284 283 282 280 279 278 277 277 276 276 275 275 274 274 274 274 273 273 272 273 273 274 276 279 281 283 283 281 279 278 277 276 275 274 274 274 274 274 274 274 274 275 275 275 275 275 274 273 272 272 272 271 270 270 269 268 267 267 266 266 266 266 266 266 266 266 267 267 267 267 267 267 268 268 268
285 285 286 287 287 287 286 285 284 284 283 282 282 281 279 278 277 276 276 275 275 275 275 274 274 274 273 272 272 272 273 273 275 277 280 282 282 281 279 278 278 276 275 274 274 274 275 274 274 274 274 274 274 274 274 273 272 271 271 271 270 270 269 269 268 267 266 266 265 265 265 266 266 266 266 266 266 266 266 267 267 267 268 268 268
281 282 283 284 285 286 286 285 284 283 282 281 281 280 279 278 277 276 275 275 275 275 275 274 274 274 273 272 272 272 272 272 274 276 279 281 281 281 279 278 278 276 274 274 275 275 275 275 274 274 274 273 273 273 272 272 271 270 270 270 270 269 269 268 268 266 265 265 265 265 265 265 265 265 265 265 266 266 266 267 267 267 268 268 269
278 278 279 280 283 284 285 284 283 282 281 280 280 279 278 278 277 277 276 276 276 276 275 275 275 274 273 272 272 271 271 272 273 275 278 280 281 280 278 278 278 276 274 274 275 275 274 274 273 273 273 273 272 272 271 270 270 270 270 269 269 269 269 268 267 266 265 265 265 264 264 264 265 265 265 265 265 266 266 267 267 268 268 268 269
275 276 277 278 281 283 284 284 283 282 281 280 279 279 279 278 278 277 277 277 277 277 276 275 275 275 274 273 272 272 272 272 273 275 277 279 280 280 278 277 277 276 275 275 274 274 273 272 272 272 272 271 271 270 269 269 269 269 269 269 269 269 269 268 267 267 266 265 264 264 264 264 264 264 265 265 265 266 266 267 267 268 268 268 269
274 275 276 277 279 281 282 282 282 281 281 280 279 279 279 278 278 277 277 277 277 277 277 276 276 275 275 274 273 273 273 273 273 275 277 278 279 279 278 277 277 276 275 274 274 273 272 271 271 271 270 270 269 269 268 268 268 269 269 269 269 268 268 268 267 266 265 264 264 264 264 264 264 264 264 265 265 266 266 267 267 267 268 268 269
273 274 275 276 278 280 281 282 281 280 280 279 278 278 277 277 277 277 277 276 276 277 277 277 276 276 275 274 274 273 273 273 274 275 277 278 279 279 278 277 276 275 274 274 273 272 271 270 269 270 269 269 268 268 268 268 268 269 268 268 268 268 268 268 267 265 264 264 263 263 263 263 264 264 264 265 266 266 266 267 267 268 268 269 269
272 273 274 275 277 278 280 281 281 280 279 278 278 277 276 276 276 276 277 277 276 276 277 277 277 276 276 275 274 274 274 274 275 276 277 278 279 278 277 277 276 275 275 274 272 270 270 269 268 268 268 268 268 268 268 268 268 268 268 268 268 267 267 267 266 265 264 264 263 263 263 263 264 264 265 265 265 266 266 267 267 268 268 269 269
270 271 273 275 277 279 280 281 280 279 279 278 277 276 276 276 275 275 276 276 276 277 277 277 277 277 277 276 275 274 274 275 276 277 278 278 278 278 277 277 277 276 274 273 270 269 268 268 268 268 268 268 268 268 268 268 268 268 267 267 268 267 267 267 266 265 265 264 263 263 263 263 264 264 264 265 265 266 266 267 267 268 268 269 269
270 272 274 276 277 279 280 281 281 279 278 278 277 276 276 276 276 275 275 275 276 276 277 277 277 277 277 277 276 275 275 276 277 277 278 278 278 278 277 277 277 276 274 272 270 268 268 267 267 268 268 268 268 268 268 267 267 267 267 267 267 267 267 266 265 265 265 264 263 263 263 263 264 264 264 265 265 265 266 267 267 268 269 269 269
272 273 274 276 277 279 280 281 281 280 278 277 277 276 276 275 275 275 275 275 275 276 276 277 277 277 277 277 276 276 276 276 277 278 278 278 278 278 277 276 276 275 273 271 270 269 268 267 267 267 268 268 267 267 267 267 267 267 266 266 266 266 266 265 265 265 264 263 262 262 263 263 264 264 264 264 265 266 266 267 268 268 269 269 269
270 271 272 274 276 278 280 281 281 280 279 277 277 276 276 275 275 275 275 275 275 275 276 276 277 277 277 277 277 276 276 277 278 278 278 278 278 277 276 276 274 272 270 270 269 269 268 268 268 268 268 267 267 267 267 267 266 266 266 266 265 265 265 265 264 264 262 262 261 262 263 263 264 264 264 264 265 266 267 267 268 268 269 269 268
269 269 270 271 273 275 277 279 280 280 278 277 276 276 275 275 274 274 275 275 275 275 276 276 276 277 277 277 276 277 277 278 278 278 278 278 278 277 276 274 272 270 268 269 269 268 268 268 268 268 267 267 267 267 266 266 266 266 265 265 265 264 264 264 263 262 261 261 262 263 263 263 263 264 264 264 265 266 267 268 268 269 269 268 268
269 270 270 271 272 273 275 277 279 279 278 277 276 275 274 274 274 274 274 275 275 275 276 276 276 277 276 276 276 277 278 278 278 278 278 278 277 276 273 272 270 268 268 269 269 268 268 268 267 267 267 267 266 266 266 266 266 265 265 265 264 264 264 264 263 262 262 262 263 263 263 263 263 264 264 265 266 267 267 268 268 269 268 268 267
269 270 271 272 273 275 276 277 278 278 277 276 275 274 274 274 274 274 274 274 275 275 275 275 276 276 276 276 277 277 278 278 278 278 277 276 274 272 271 269 268 268 268 268 268 268 268 267 267 266 266 266 266 266 266 266 265 265 265 264 264 264 264 263 263 262 263 263 263 263 263 263 263 264 264 265 266 267 267 268 268 268 268 267 267
269 270 271 271 273 274 276 278 278 277 276 275 274 273 273 273 273 274 274 274 275 275 275 275 275 276 276 276 277 277 278 278 277 276 274 272 271 270 270 269 268 268 268 268 268 267 267 267 266 266 266 266 266 266 265 265 265 265 265 264 264 264 264 263 263 263 263 263 263 263 263 263 263 264 265 266 267 267 268 268 268 268 267 267 267
267 267 268 269 270 272 273 275 276 276 275 274 273 273 273 273 273 274 274 274 275 275 275 275 275 275 276 276 277 278 278 276 274 272 271 270 270 269 269 269 269 268 268 268 268 267 267 266 266 266 266 266 265 265 265 265 265 265 264 264 264 264 264 263 263 263 263 263 263 263 263 263 263 264 265 266 266 267 268 268 268 267 267 267 266
265 265 266 267 269 271 273 274 275 275 274 273 273 273 273 273 273 274 274 274 274 274 274 274 275 275 276 277 278 277 276 273 271 269 269 268 268 268 268 268 268 268 268 268 268 267 266 266 266 266 266 265 265 265 265 265 264 264 264 264 264 263 263 263 263 263 263 263 262 262 263 263 264 264 265 266 266 267 268 268 267 267 267 267 266
264 265 266 267 269 271 273 274 275 274 273 273 273 273 273 273 273 273 274 274 274 274 274 274 274 275 276 277 276 274 272 269 268 267 267 267 267 267 268 268 268 268 268 268 267 266 266 266 266 266 265 265 265 265 264 264 264 264 264 264 264 263 263 263 264 264 263 262 262 263 263 263 264 265 265 265 266 267 268 267 267 267 267 266 266
264 265 266 268 269 271 273 274 274 273 273 273 272 272 272 273 273 273 273 273 273 273 273 273 273 274 274 274 272 270 268 267 266 266 266 266 267 268 268 268 268 267 267 266 266 266 266 266 265 265 265 265 264 264 264 264 264 264 264 264 264 264 264 264 264 264 263 262 263 263 263 263 264 264 265 265 267 268 268 267 267 267 266 266 266
266 267 268 269 270 272 273 273 273 272 272 272 272 272 272 272 272 272 272 272 272 272 271 272 272 272 270 269 268 267 266 266 266 266 266 266 267 267 267 267 266 266 266 265 265 266 265 265 265 265 265 264 264 264 264 263 263 264 264 264 264 264 264 264 264 264 264 264 264 264 263 263 264 264 265 266 267 267 267 267 267 267 266 266 266
267 268 269 270 271 272 272 272 272 271 271 271 271 271 271 271 272 272 271 271 270 270 270 270 270 268 266 266 266 265 265 265 265 266 266 267 267 266 266 265 265 265 265 265 265 265 265 265 265 265 264 264 264 264 263 263 263 263 263 264 264 264 264 264 264 264 265 265 265 264 263 264 264 265 266 267 267 267 267 267 267 266 266 266 265
268 269 269 270 270 270 270 270 270 270 270 270 270 270 270 270 270 269 269 269 269 269 268 268 267 266 265 264 264 264 264 265 266 266 266 266 266 265 265 265 265 265 265 265 265 265 265 265 265 264 264 264 264 264 264 263 263 263 263 263 264 264 264 264 264 265 265 266 265 264 264 265 265 266 267 267 267 267 267 267 267 266 266 265 265
268 268 268 269 269 269 269 269 269 269 269 269 269 268 268 268 267 267 267 267 267 267 266 265 265 264 264 263 263 264 265 265 266 266 266 265 265 265 265 264 264 264 265 265 265 265 264 264 264 264 264 264 264 264 264 264 263 263 263 263 263 264 264 264 265 265 265 266 266 265 265 265 266 267 267 267 267 267 267 267 266 266 266 265 265
266 267 267 267 267 267 267 267 267 267 267 267 266 266 266 266 265 265 266 266 266 265 264 264 264 263 263 263 264 265 266 266 265 265 264 264 264 264 264 264 264 264 264 264 264 264 264 264 264 264 264 264 264 264 264 264 263 263 263 263 263 264 264 264 265 265 266 266 265 265 266 266 267 267 267 267 267 267 267 267 266 266 265 265 265
265 265 265 265 265 266 266 266 265 265 265 265 264 264 264 264 264 264 265 265 264 264 263 263 263 263 263 264 264 265 265 265 265 264 264 264 264 263 263 264 264 264 264 264 264 264 264 264 264 264 264 264 264 264 264 263 263 263 263 263 264 264 264 264 265 265 266 266 265 266 267 267 268 267 267 267 267 267 267 266 266 265 265 265 265
263 264 264 264 264 264 264 264 264 264 264 264 263 263 263 263 263 264 264 264 263 263 263 262 262 262 263 263 264 264 264 264 264 264 264 263 263 263 263 264 264 263 263 263 263 263 263 264 264 264 264 264 264 264 263 264 263 263 263 264 264 264 264 264 264 265 266 266 266 267 267 268 267 267 266 267 267 267 267 266 266 265 265 265 265
Wind_Speed
39 42 45 45 45 44 44 45 46 45 42 41 42 42 42 42 43 43 42 42 43 44 44 45 46 46 46 45 45 45 45 45 44 43 41 40 39 38 37 36 34 32 30 29 29 28 27 26 24 23 21 20 19 18 17 17 16 17 17 17 18 18 19 17 11 12 19 21 20 20 18 18 19 21 24 27 28 30 31 30 31 31 32 34 35
41 44 44 42 43 45 44 43 42 41 41 41 41 42 42 43 43 43 43 43 44 45 45 45 45 46 45 45 45 45 45 45 45 44 43 41 40 38 38 36 35 33 32 31 31 29 28 27 25 23 22 20 19 18 17 17 17 18 18 18 20 20 19 19 16 13 15 19 20 20 18 15 16 18 22 25 26 28 30 31 31 31 32 33 34
42 42 39 39 41 42 41 40 39 39 41 42 43 43 44 44 43 43 44 43 43 44 45 45 46 46 46 45 45 45 46 46 46 45 45 43 41 40 39 38 37 36 35 34 33 31 29 28 26 24 22 20 19 18 18 18 18 18 19 19 19 19 18 18 19 16 16 19 19 19 17 14 15 19 22 23 23 25 28 30 31 32 32 32 33
37 35 35 38 39 38 39 38 38 39 41 43 44 45 45 43 43 44 43 43 43 44 45 45 46 46 46 46 46 47 47 47 47 46 46 45 43 42 41 40 39 38 37 36 34 32 31 29 27 25 23 21 20 20 19 19 19 18 18 18 17 18 17 17 18 18 18 20 20 19 18 18 18 19 22 24 23 24 27 30 31 31 31 29 29
33 33 35 37 37 38 39 38 39 40 42 44 46 46 45 43 43 43 43 43 44 45 45 45 45 46 48 48 49 49 49 49 48 48 47 46 44 43 42 41 40 38 37 36 34 33 31 30 28 26 23 22 22 21 20 19 18 17 17 18 17 16 16 16 17 18 20 22 22 21 19 19 19 18 19 22 25 27 28 28 28 28 27 25 26
31 34 36 37 38 39 39 38 40 43 45 46 46 45 44 43 42 43 44 44 44 45 45 46 47 48 49 50 50 50 50 50 50 49 48 47 45 44 42 41 40 38 36 35 34 33 31 30 28 26 24 24 23 22 21 19 18 18 18 17 15 15 15 16 16 17 19 21 21 21 19 19 20 18 17 19 25 29 31 28 25 25 25 26 28
30 34 36 37 37 38 38 39 42 44 46 46 44 42 42 42 42 43 43 44 44 44 45 46 48 50 50 50 50 51 50 50 50 49 48 47 46 44 42 41 39 37 36 35 34 32 31 29 27 26 25 24 23 22 21 20 19 19 18 16 14 14 15 15 16 17 18 18 19 19 19 19 21 20 19 19 22 24 26 27 26 24 26 28 30
31 33 35 36 37 38 38 39 42 43 43 41 39 39 40 41 43 42 42 43 44 45 46 47 47 47 48 49 49 50 50 50 49 48 47 46 45 44 42 41 39 37 36 34 33 32 30 29 27 26 25 24 23 22 21 21 20 19 17 15 13 13 15 15 15 15 16 16 16 17 17 18 19 19 19 17 16 17 20 26 29 29 30 30 28
30 32 33 35 37 36 36 38 40 39 37 37 38 39 40 41 42 42 43 44 45 45 45 45 45 45 44 45 45 46 47 48 49 49 48 46 45 43 42 41 39 38 36 34 33 32 30 29 27 26 24 23 22 21 20 19 19 18 16 14 13 14 15 15 14 15 14 14 14 16 16 16 17 19 18 16 17 20 23 26 29 30 33 35 31
27 28 30 34 35 33 33 35 35 35 36 37 38 39 39 40 40 42 43 43 43 43 43 43 44 44 43 42 43 44 45 46 48 49 50 48 46 43 42 41 40 38 37 35 33 31 30 29 27 25 23 22 20 19 18 17 17 15 12 12 13 14 15 15 15 14 13 13 13 15 16 17 18 19 19 20 21 23 24 25 28 31 32 33 32
29 28 31 35 34 31 32 32 33 34 36 37 37 37 38 38 39 40 41 41 41 42 42 43 44 44 44 44 45 45 45 45 46 48 49 48 46 45 43 41 40 38 37 36 34 32 30 28 26 24 22 21 20 19 17 16 15 14 12 12 13 14 14 15 15 14 14 14 14 14 15 17 19 19 21 22 23 24 25 25 27 30 28 24 24
31 31 33 34 32 30 30 30 31 33 35 35 36 36 36 37 38 38 39 41 41 41 42 44 44 44 44 45 46 46 46 46 47 48 48 48 46 45 43 42 40 39 37 36 34 32 30 28 26 24 23 22 21 19 17 16 15 15 15 15 15 15 15 16 17 16 15 15 15 15 16 19 21 21 20 21 24 27 27 25 24 26 26 25 25
30 32 32 31 29 28 28 28 30 32 33 34 34 34 35 36 38 39 39 40 40 41 42 43 43 43 44 44 44 44 43 44 46 47 47 47 46 45 43 42 41 39 37 36 33 32 31 30 27 25 24 21 19 19 18 18 16 15 14 15 15 15 15 16 17 17 17 18 18 18 18 19 21 22 22 23 26 28 27 25 25 25 26 26 27
31 30 30 28 26 25 25 27 29 30 30 30 31 32 35 37 37 37 37 37 39 40 41 42 42 43 43 43 42 41 41 42 43 44 44 44 45 44 42 41 40 38 36 35 33 32 31 30 27 25 24 21 18 18 19 19 17 14 14 14 14 13 14 15 15 15 17 18 19 21 21 22 24 27 26 24 23 25 27 27 25 24 26 30 35
33 30 28 26 23 22 23 24 26 26 25 26 28 31 33 34 34 34 35 37 39 39 39 40 40 40 41 40 39 39 40 40 42 43 42 41 42 42 41 39 37 36 34 34 34 32 30 28 26 25 24 21 19 18 18 17 16 14 13 12 12 13 14 15 15 15 17 18 20 24 25 25 26 26 25 25 25 25 27 30 30 32 36 38 40
33 31 28 26 22 20 20 21 23 22 22 24 26 29 30 31 31 32 32 33 34 34 35 37 38 38 38 39 38 37 37 39 41 40 39 39 40 40 39 38 36 34 32 32 32 30 28 28 26 24 23 22 18 17 17 17 15 14 13 12 12 13 15 15 15 16 18 19 21 23 24 24 25 26 26 27 28 28 30 34 37 37 36 32 31
30 30 29 27 23 20 19 19 21 21 21 23 26 27 28 29 30 30 30 30 31 32 33 34 35 37 38 38 39 37 37 39 41 39 38 37 38 39 39 36 34 32 30 30 30 29 28 27 26 24 22 21 18 17 18 17 15 14 13 12 12 14 16 17 16 16 16 17 18 21 23 25 26 26 25 25 25 27 31 33 33 30 26 20 20
29 29 28 27 24 21 19 19 21 21 22 24 26 27 27 27 29 30 31 31 31 32 32 32 33 35 37 39 40 39 39 41 41 39 37 37 38 40 40 36 33 32 30 28 28 28 27 26 25 23 21 20 19 18 18 18 16 15 12 11 12 16 17 15 14 15 16 18 20 22 23 23 23 23 25 28 29 28 27 28 28 26 23 19 18
30 30 28 26 23 20 18 18 20 21 22 24 25 25 26 26 27 28 30 30 30 30 31 31 31 33 35 37 39 38 38 40 40 38 38 37 38 41 40 36 33 32 30 29 28 26 26 24 22 21 20 20 20 19 18 18 16 14 12 11 13 15 14 13 14 18 21 22 22 21 22 23 26 28 31 34 33 27 24 25 26 26 24 24 23
33 32 29 25 22 20 17 17 18 18 20 22 22 23 24 25 26 27 28 28 28 28 29 30 30 31 32 34 36 36 38 40 39 37 38 38 39 41 41 38 35 33 32 31 29 28 26 25 22 21 21 21 20 20 18 17 16 14 13 13 14 14 14 15 17 18 19 20 19 20 24 27 31 34 34 33 28 23 22 23 24 26 27 28 29
36 35 30 26 23 20 18 18 17 18 19 20 21 22 24 25 26 27 28 27 26 26 28 28 28 29 30 32 34 34 37 40 40 38 38 39 39 41 42 39 37 36 33 31 31 30 29 28 26 24 23 22 21 20 18 16 15 14 13 14 14 13 12 14 16 16 18 21 23 25 29 32 32 32 29 27 24 22 23 23 23 25 25 26 29
36 36 32 27 24 21 19 18 17 17 19 19 21 22 23 24 26 27 27 27 26 25 25 26 26 26 27 29 31 32 33 37 39 39 39 39 39 40 42 39 37 37 34 31 31 31 29 29 28 25 23 23 21 19 17 15 14 13 13 12 11 10 11 13 16 17 20 23 26 29 31 30 29 27 25 24 24 23 23 23 21 22 24 27 30
35 35 33 29 26 23 20 18 17 17 18 19 21 22 23 24 25 25 26 26 25 25 24 24 23 23 24 26 29 30 31 34 36 36 37 39 37 35 38 38 34 35 34 31 32 32 27 25 25 23 21 20 18 16 15 13 12 13 11 9 8 9 12 15 17 19 21 23 24 26 27 25 24 24 23 23 23 23 23 23 23 26 30 34 36
33 32 32 30 28 26 23 20 19 18 19 20 21 22 23 24 25 26 26 25 24 23 23 24 23 21 22 24 26 29 31 32 34 33 35 38 35 31 33 34 31 31 30 29 31 30 24 21 21 20 18 17 15 13 13 12 11 11 9 6 8 11 14 17 18 18 19 20 20 23 24 23 22 23 23 23 23 24 25 26 28 31 33 37 39
30 30 30 29 29 28 25 22 20 20 20 21 23 24 25 25 25 26 26 25 24 22 21 23 23 22 24 26 26 28 30 32 33 32 32 35 35 30 29 30 29 28 27 27 27 25 22 19 19 17 16 15 14 13 14 14 12 10 8 7 11 14 15 16 16 15 16 17 19 21 23 23 23 23 24 23 24 26 28 30 31 32 34 37 40
30 31 30 29 29 27 25 23 21 21 22 24 25 26 27 27 26 25 26 25 24 22 21 22 22 22 25 29 29 29 31 33 34 32 30 33 34 30 29 29 28 27 26 25 22 21 20 19 18 17 17 16 16 17 16 15 14 12 11 11 14 14 14 14 14 13 15 16 18 20 22 23 24 25 25 24 25 28 29 31 33 34 33 35 38
32 32 32 31 30 28 25 24 23 22 23 24 26 26 27 28 26 25 26 25 23 22 22 22 21 22 26 30 30 31 32 32 33 32 32 33 33 32 31 31 29 28 27 25 23 23 22 20 18 20 20 18 18 17 16 15 14 14 13 13 13 13 12 13 12 13 15 17 18 21 23 23 24 25 25 25 27 29 28 28 31 33 33 33 34
34 36 36 34 31 29 27 25 24 23 24 25 27 26 27 28 28 29 31 31 29 26 25 25 25 25 28 30 30 30 31 32 35 38 39 39 37 36 35 35 34 32 32 31 29 28 26 24 23 22 21 19 18 17 16 15 13 13 13 12 11 12 12 12 12 13 15 16 18 20 22 22 23 24 25 26 28 29 27 27 29 32 34 33 30
35 37 38 34 31 29 27 26 25 25 24 25 27 28 30 31 32 32 33 35 34 32 30 29 29 28 28 30 31 30 29 33 38 41 40 40 40 39 38 38 38 37 37 36 35 32 29 27 25 23 21 19 18 16 15 14 13 13 12 11 11 11 11 12 13 13 13 14 17 19 21 22 23 24 25 26 28 28 27 28 29 31 33 31 28
33 34 34 32 31 29 26 25 25 25 24 24 25 27 29 30 31 30 30 32 34 33 30 29 30 30 30 31 34 35 34 34 36 37 36 36 37 36 36 38 39 38 37 37 35 32 29 26 24 23 22 20 19 18 16 15 14 13 12 11 11 11 11 12 12 12 13 14 17 19 21 22 23 24 24 26 29 30 29 29 30 30 30 29 28
30 30 31 30 30 29 26 25 24 24 24 24 23 22 23 24 26 27 26 26 27 28 26 24 24 28 31 31 31 32 30 29 31 34 36 36 35 34 34 37 38 37 37 37 34 30 28 25 23 23 23 21 20 20 18 16 15 13 12 11 11 11 12 12 12 12 14 16 17 19 21 22 23 24 24 25 29 32 32 31 31 30 30 29 28
30 31 32 32 31 30 28 26 24 22 22 22 22 21 19 17 18 21 23 23 22 23 25 23 21 23 27 29 30 29 27 27 31 35 36 35 35 33 34 36 35 33 33 34 31 27 26 25 23 24 24 23 22 21 19 17 15 13 11 12 13 12 12 12 12 13 15 16 18 19 21 22 23 24 25 26 28 31 32 32 31 30 30 30 29
34 34 34 32 30 29 27 25 23 22 21 21 21 21 20 16 14 15 19 22 21 22 24 25 23 23 24 28 30 31 30 31 34 36 36 35 34 33 32 33 32 30 30 31 28 25 25 25 24 25 26 25 23 21 18 16 14 12 12 13 13 13 13 13 13 14 15 16 18 20 21 22 23 24 26 26 27 29 30 30 30 31 30 28 28
35 33 33 31 29 27 26 24 22 21 22 22 21 21 21 20 18 15 14 14 15 18 22 24 25 24 25 28 29 30 32 34 36 37 37 35 34 33 32 30 29 27 28 29 28 26 25 24 24 25 26 24 21 19 17 14 12 12 12 13 13 13 14 13 13 15 16 16 18 20 21 22 23 24 26 27 27 28 28 29 29 29 28 26 28
31 30 31 32 30 27 26 25 23 21 21 21 22 22 22 22 21 19 16 13 12 14 18 22 25 25 26 28 28 30 34 36 37 38 38 37 35 34 31 28 26 25 26 27 27 26 26 25 24 25 24 22 19 17 15 13 12 11 11 11 12 13 13 13 14 15 16 17 19 20 20 21 23 25 27 28 28 27 27 28 29 29 29 29 30
31 31 32 32 30 26 26 26 23 22 22 22 23 23 23 22 21 20 19 18 16 15 16 20 23 25 26 28 29 31 34 37 38 39 39 38 38 37 32 28 27 27 28 28 27 26 26 26 25 24 23 20 18 16 14 12 11 10 10 10 11 12 12 14 14 15 16 17 19 20 21 22 25 26 26 26 27 26 27 30 31 32 31 30 31
32 31 31 31 29 28 29 28 24 23 22 22 22 22 21 21 21 20 19 18 18 17 16 19 21 23 25 28 30 32 35 37 38 38 37 37 39 38 35 33 31 30 29 29 28 26 26 26 24 23 22 19 17 15 13 12 10 9 9 9 10 11 12 13 14 15 17 19 20 21 22 23 25 26 25 26 26 27 28 31 32 32 33 33 33
33 32 33 33 31 30 30 29 26 22 20 20 20 20 19 19 20 19 18 18 18 17 17 20 22 22 23 26 30 32 34 35 36 36 37 38 38 37 35 33 32 31 30 30 29 28 27 26 24 22 20 18 16 14 13 11 10 9 8 9 10 11 11 13 15 16 18 20 20 21 22 24 25 25 25 26 27 28 30 32 30 30 33 35 33
31 32 34 34 33 31 30 28 26 22 19 19 19 19 19 18 18 17 17 16 17 17 17 19 21 22 23 27 30 32 32 32 32 32 33 33 34 35 34 33 31 31 31 31 30 29 27 26 23 21 19 17 16 14 13 11 9 9 8 9 10 11 12 14 16 17 18 19 20 21 23 24 25 25 25 25 27 29 31 31 31 30 32 35 36
29 28 29 30 30 29 28 26 23 20 19 19 19 18 18 18 17 17 17 16 16 17 18 19 20 22 25 29 32 33 30 27 27 27 28 29 31 34 35 34 33 33 33 33 31 29 27 25 22 20 19 17 15 13 12 10 9 9 9 9 10 12 13 15 17 18 18 19 21 22 24 25 25 25 25 24 27 30 30 30 33 36 36 36 39
30 30 30 29 29 30 30 27 22 18 19 19 19 18 18 18 18 18 17 17 17 17 18 19 20 23 27 31 34 33 29 25 26 28 30 32 34 34 34 34 33 33 33 32 30 28 26 23 21 19 17 16 14 12 11 10 9 9 9 9 10 12 15 15 16 17 18 19 21 23 24 25 25 25 25 27 29 30 29 30 34 38 37 37 39
31 30 29 27 26 27 28 25 21 19 19 19 18 18 18 18 19 19 18 18 18 18 18 19 20 23 28 31 32 30 27 26 27 28 29 31 32 32 32 31 31 31 31 30 28 26 24 22 20 18 16 15 13 11 10 10 9 9 10 10 11 13 15 16 16 17 18 19 22 23 24 26 25 25 27 30 31 29 29 32 37 38 36 37 39
28 26 26 26 25 25 25 23 19 19 19 19 19 19 20 20 20 20 19 19 20 20 19 19 21 24 26 27 28 29 28 28 28 28 29 30 31 31 30 29 28 28 27 26 24 23 22 20 18 16 15 13 11 10 10 9 9 10 10 11 12 14 15 16 17 17 18 21 23 24 25 27 27 28 31 32 29 28 30 34 37 37 36 38 40
26 25 25 24 23 23 23 22 20 20 20 20 20 20 21 20 20 19 19 19 19 20 20 21 23 24 23 25 28 30 29 28 28 29 29 30 31 30 29 28 27 26 25 24 23 22 20 18 16 15 13 11 10 10 9 9 10 10 11 12 13 15 15 16 16 17 20 22 24 26 28 28 29 32 35 31 27 28 33 35 35 36 37 38 38
25 24 23 21 21 21 21 19 18 18 18 18 17 18 19 19 19 19 19 19 19 20 21 23 23 22 22 25 29 30 29 29 29 29 29 30 30 29 28 28 26 25 25 23 22 20 18 16 14 13 11 10 9 9 9 9 10 11 12 13 14 15 15 15 16 17 19 22 24 27 30 30 31 33 32 28 27 31 34 35 34 35 37 37 36
26 24 22 21 19 17 15 15 16 16 16 16 16 16 17 18 18 18 19 19 21 22 22 21 21 21 23 26 27 29 29 30 30 29 29 29 29 29 28 27 26 25 23 22 20 17 15 14 12 11 9 9 9 9 9 9 10 11 12 13 14 15 15 15 16 17 18 20 24 28 30 33 36 34 29 27 30 33 34 34 35 35 36 37 36
18 16 14 13 11 11 12 14 15 15 15 15 15 15 16 16 17 19 20 21 23 23 21 21 22 24 25 26 28 29 31 31 30 30 30 29 29 29 28 26 25 23 21 19 17 15 13 11 10 9 8 8 8 8 9 9 10 11 12 13 14 14 14 14 16 17 17 19 23 27 31 35 36 32 27 27 32 34 33 33 34 35 37 38 37
3 0 3 6 8 10 11 12 14 14 14 14 15 16 17 18 19 20 21 23 23 23 22 22 24 25 26 27 29 31 32 31 30 30 30 29 29 28 27 25 23 21 18 16 14 13 12 10 9 8 8 8 8 8 8 9 10 11 12 12 13 13 13 14 15 16 17 20 23 28 32 33 30 27 26 30 32 33 32 32 33 35 38 38 37
7 9 10 11 11 12 12 13 14 14 15 16 17 17 17 19 19 20 21 22 22 22 22 24 25 27 28 30 31 32 32 31 31 30 29 29 28 27 25 23 20 18 16 15 13 12 11 10 9 8 7 7 8 8 9 9 10 11 12 12 12 12 12 13 14 14 16 20 25 29 31 30 26 26 29 32 32 32 32 32 33 36 37 37 36
12 13 14 14 14 15 15 16 16 16 16 17 17 17 17 18 18 20 21 22 21 21 22 24 26 28 30 32 32 32 31 31 30 30 29 28 26 25 23 21 19 17 15 14 13 12 10 9 8 7 7 7 8 9 9 10 11 12 12 12 12 12 12 12 13 14 16 20 26 30 30 27 26 28 31 32 31 31 31 32 34 36 36 35 35
14 15 16 16 16 17 17 17 17 17 17 18 18 18 18 18 18 19 21 22 22 22 23 24 26 28 30 31 31 30 30 29 29 28 27 26 24 23 21 19 18 16 15 13 12 11 10 9 7 7 7 8 8 9 10 11 11 12 12 13 13 13 12 12 14 16 17 21 26 30 28 25 26 30 31 31 31 30 30 31 33 34 35 35 35
Wind_Direction
222 223 224 222 221 221 222 222 222 222 221 220 220 220 219 219 219 219 218 217 216 214 214 214 214 214 212 211 211 210 209 208 208 208 207 208 209 208 206 204 204 205 204 203 204 206 206 206 207 207 206 206 208 210 213 218 223 226 229 232 233 234 232 230 241 266 267 267 273 281 284 281 283 293 303 310 317 322 325 325 325 326 326 326 324
226 228 226 224 224 223 223 223 222 221 221 221 221 221 220 220 220 218 217 217 216 214 213 213 213 212 211 211 210 210 209 208 208 207 207 207 207 207 206 205 205 204 203 204 204 205 205 206 206 205 205 207 209 212 216 219 223 227 231 233 236 237 234 236 245 264 276 277 281 288 291 286 287 299 307 310 317 324 325 324 323 323 322 321 319
230 230 228 227 228 226 225 223 222 222 221 221 222 222 222 221 220 218 217 216 215 215 214 212 211 210 210 209 209 209 209 208 207 207 206 207 207 207 207 206 206 205 204 205 205 204 204 205 206 205 205 207 210 214 219 222 225 229 232 233 236 241 240 240 246 257 275 283 287 293 297 293 292 302 309 312 316 320 320 319 321 320 319 318 316
234 232 231 231 230 228 226 224 222 222 221 222 222 223 222 221 219 218 217 215 214 214 214 212 210 208 207 207 208 208 207 206 207 207 206 207 207 207 207 207 208 207 207 206 205 204 204 205 206 206 206 208 212 216 218 222 226 227 232 235 236 242 245 245 248 256 270 280 285 291 295 295 295 303 312 315 317 317 316 316 316 317 317 317 316
238 236 234 234 230 228 226 223 221 222 222 223 223 223 222 220 219 218 215 214 214 213 211 209 208 207 207 207 207 206 206 206 205 206 206 206 207 208 208 208 208 209 208 207 206 206 206 207 207 207 207 209 212 216 218 221 224 225 230 235 237 242 247 249 253 258 265 272 282 291 295 298 301 306 313 317 317 317 316 316 316 317 318 317 316
245 242 237 234 231 228 225 222 222 223 224 224 224 222 221 219 218 217 215 214 213 211 209 207 207 207 208 208 207 206 205 205 205 205 205 205 206 208 208 208 208 208 208 208 208 208 208 209 210 208 209 212 213 215 218 219 221 224 227 230 234 239 244 250 256 262 264 270 282 292 297 303 306 308 313 317 316 316 316 318 320 321 319 316 314
253 245 238 234 231 228 225 224 224 225 225 225 224 222 219 218 217 217 215 214 212 210 209 208 208 209 209 208 207 206 205 205 205 204 204 204 205 206 206 206 207 207 208 208 209 209 210 210 210 210 212 214 215 216 218 218 218 221 224 226 229 235 244 254 260 263 267 274 285 293 298 304 306 306 310 316 316 315 318 320 320 320 317 314 312
258 248 238 233 231 229 227 227 228 228 227 226 224 221 219 217 217 216 214 213 213 212 210 209 209 209 208 208 207 206 204 204 203 203 203 203 203 203 204 204 204 204 206 207 208 208 209 209 211 213 214 216 218 219 219 217 216 217 220 222 226 236 247 257 261 264 270 278 288 297 300 301 304 308 315 321 320 319 322 319 315 315 315 312 309
257 249 239 236 236 234 231 230 230 229 228 226 223 221 219 217 215 214 213 213 213 213 211 209 208 208 207 207 206 204 203 203 203 202 202 202 202 202 201 202 202 202 203 204 206 207 208 209 211 213 215 216 219 221 221 219 218 216 213 215 225 237 247 253 257 264 272 280 290 299 301 300 307 314 319 322 320 317 319 317 312 312 314 311 308
268 258 251 249 247 241 236 233 231 229 227 225 223 220 218 216 214 213 213 213 212 211 210 209 208 207 205 204 204 204 204 204 204 204 204 203 201 200 200 201 201 201 201 201 202 204 206 208 210 212 214 216 217 218 217 216 217 218 214 216 227 235 241 248 254 262 272 279 287 296 299 299 306 312 312 314 316 316 316 316 312 311 312 310 309
286 273 264 261 256 245 238 234 231 229 227 225 222 220 217 215 213 212 211 211 210 210 208 208 207 206 205 204 204 204 205 205 205 205 205 204 202 199 198 199 199 200 200 200 200 202 203 206 208 208 210 212 212 210 208 208 210 215 219 226 233 238 243 250 256 264 271 276 282 289 293 296 303 308 308 311 315 314 312 310 307 307 309 308 308
292 279 271 266 258 248 241 235 230 230 228 225 222 219 216 214 212 211 210 209 209 208 208 207 206 205 205 204 204 204 205 205 205 204 205 204 203 200 198 198 197 198 199 200 200 200 200 202 203 205 206 207 205 202 201 205 210 217 225 231 238 245 250 254 261 268 274 280 285 287 289 296 301 302 304 309 311 309 307 305 302 302 302 298 297
300 285 278 271 261 253 246 238 233 231 228 225 221 216 214 213 212 211 210 209 207 207 208 207 206 205 204 203 204 204 204 204 203 203 203 203 203 201 199 198 197 197 198 199 199 199 198 199 199 202 203 201 200 199 198 202 209 217 225 232 239 248 254 259 264 269 275 280 285 286 288 293 296 296 299 304 306 305 304 302 300 299 296 294 296
315 298 287 280 272 262 252 242 237 235 230 225 220 215 214 213 212 211 210 207 207 207 207 207 206 205 204 203 203 203 203 203 202 202 202 202 202 201 199 197 197 197 197 198 198 197 198 197 196 199 199 194 194 198 200 203 208 212 219 227 237 248 257 263 268 271 274 276 280 284 286 286 287 290 295 299 300 300 301 301 305 306 301 299 299
327 315 303 294 285 273 260 250 244 240 233 226 221 217 216 215 213 211 209 208 208 208 207 206 205 205 204 203 202 202 202 201 200 200 199 198 199 199 197 196 195 195 196 197 197 197 197 195 194 196 197 194 193 197 201 205 208 212 219 229 240 251 258 263 269 273 275 276 279 283 286 286 286 289 294 299 299 298 299 301 305 308 305 301 299
332 325 316 307 297 281 268 257 249 244 236 228 223 220 218 216 214 212 210 210 210 210 209 208 206 205 203 202 201 201 200 199 198 197 195 193 195 196 194 193 192 192 194 196 196 195 194 194 195 196 197 196 195 197 198 200 204 212 221 231 242 252 260 267 271 273 276 279 281 284 286 288 289 292 296 299 300 302 304 303 302 304 304 300 297
334 328 321 316 306 290 275 260 251 246 238 229 225 222 220 218 215 212 209 209 209 209 210 209 207 205 203 201 200 199 198 198 196 194 189 188 191 192 191 190 190 190 191 192 193 193 192 194 195 194 195 195 193 192 194 197 202 209 218 229 242 255 267 275 277 274 274 278 282 284 287 289 290 292 293 293 297 304 306 302 300 303 303 297 295
332 328 322 320 313 299 284 267 252 243 236 230 226 223 221 218 215 212 209 209 209 209 209 208 208 207 204 203 201 200 198 197 194 191 187 186 190 191 188 187 187 187 187 187 190 191 191 193 196 195 194 192 189 189 193 198 202 206 214 227 244 257 266 272 274 272 275 283 287 286 286 285 283 283 284 286 292 299 297 292 293 296 293 286 287
327 324 320 319 314 301 286 269 254 243 237 232 228 225 222 219 216 213 211 210 209 208 207 207 207 207 206 205 203 201 200 196 193 191 187 186 190 190 186 184 184 184 184 184 186 187 187 190 194 197 196 190 188 191 193 195 199 204 210 223 238 249 256 262 269 277 284 287 288 284 280 278 279 283 287 290 293 296 291 286 288 288 284 281 283
321 321 318 318 314 305 293 279 267 256 246 239 233 227 223 219 215 213 211 210 208 207 206 205 206 206 206 206 205 204 202 198 194 192 189 188 190 189 186 184 183 182 182 182 183 184 186 188 189 192 193 188 187 190 191 193 198 201 207 221 232 242 255 267 272 277 280 278 276 277 280 283 286 289 293 296 298 300 294 288 286 282 279 280 280
317 318 317 315 313 309 302 290 279 268 254 242 233 227 223 219 214 211 208 207 206 205 204 204 205 205 205 206 205 206 205 201 197 193 192 191 192 190 189 187 185 183 182 182 183 184 186 189 189 189 191 190 189 191 191 192 195 200 210 222 233 245 258 269 270 267 267 269 273 280 284 287 290 293 297 301 302 301 296 290 284 280 277 277 281
314 315 314 312 309 306 299 289 278 265 251 237 226 222 218 216 214 209 205 203 203 203 203 202 203 204 204 206 206 207 208 205 200 196 195 195 193 191 191 191 188 184 182 182 186 187 188 191 192 191 192 192 191 190 189 188 192 204 217 224 233 247 252 256 260 262 266 273 279 282 285 288 293 297 300 301 300 299 296 290 283 279 277 277 280
312 311 311 309 306 301 294 286 273 258 246 234 224 217 212 210 209 206 203 201 199 199 200 200 201 202 203 205 207 207 208 206 202 199 198 198 195 192 192 192 190 186 183 182 185 186 185 189 191 188 188 189 189 187 185 187 196 209 217 221 229 242 245 249 257 264 270 276 280 283 287 291 295 297 297 298 298 297 293 288 284 283 283 282 281
311 309 309 307 303 298 291 283 269 254 243 233 221 214 209 205 202 202 201 200 198 199 198 196 197 200 203 204 206 207 206 204 201 200 200 200 197 191 189 190 189 187 185 183 184 184 182 182 184 182 183 186 185 185 186 190 199 208 211 216 230 238 244 251 260 266 272 277 280 284 288 292 293 292 294 296 297 295 291 288 288 288 287 286 286
313 311 309 307 303 298 290 280 266 252 242 230 218 212 206 200 198 198 198 198 200 201 199 197 199 201 201 200 201 203 203 201 199 199 199 199 198 191 185 185 185 185 184 181 180 180 177 174 175 177 181 184 183 186 192 195 200 208 211 218 232 241 249 256 263 267 271 277 280 283 287 291 291 292 294 295 295 294 294 294 293 292 292 291 290
314 312 310 307 304 299 288 277 264 251 241 230 221 216 208 201 198 196 196 199 202 203 201 201 203 203 201 198 196 196 198 198 198 197 195 196 197 190 180 179 180 180 180 177 171 169 169 170 174 179 182 185 187 192 199 206 213 219 222 228 239 249 256 260 264 268 273 277 278 279 285 290 293 295 298 297 295 295 296 297 296 295 295 294 292
310 308 306 304 303 297 286 275 263 250 240 229 222 219 213 206 201 197 197 199 201 204 204 202 203 204 201 197 194 192 193 194 195 195 193 193 194 187 179 176 175 172 172 170 166 168 170 171 176 182 182 186 194 202 209 217 221 224 229 237 246 252 258 263 268 272 273 275 276 280 286 292 295 297 299 297 295 296 297 298 296 296 297 297 291
304 302 300 298 295 290 282 273 262 250 240 231 223 218 214 209 206 206 205 203 200 201 203 203 205 205 200 195 191 189 191 195 196 195 192 190 189 184 178 175 174 171 170 170 169 170 171 171 174 180 183 189 199 208 215 218 222 226 231 236 243 250 258 265 268 268 270 275 280 285 290 293 294 296 298 297 295 297 300 300 296 296 299 298 291
300 298 296 293 290 286 280 270 260 250 242 235 229 226 221 216 214 216 216 213 209 207 205 206 208 206 200 196 192 189 193 200 200 197 193 190 188 183 177 174 173 173 173 173 170 168 169 171 175 179 185 193 200 206 211 214 218 223 226 231 241 250 259 267 271 274 280 285 289 291 293 294 294 296 298 297 296 299 302 301 299 298 299 296 289
297 293 290 289 287 285 281 271 260 250 243 237 233 232 231 226 223 222 222 221 218 215 213 213 212 208 205 203 200 198 201 203 199 195 193 192 189 184 177 174 173 171 170 172 171 169 170 175 179 183 188 194 199 202 205 209 212 215 219 228 241 253 265 273 280 288 293 293 293 294 294 293 294 297 298 297 298 302 303 302 300 300 298 295 290
291 287 286 285 284 284 281 273 262 251 243 238 232 230 231 230 227 225 223 221 219 217 217 218 214 209 208 207 205 204 204 200 193 190 191 191 189 183 176 174 172 168 168 171 172 171 173 177 182 187 192 195 198 200 202 204 208 211 219 232 245 256 267 278 287 294 294 294 295 295 294 293 294 296 297 297 299 302 304 304 303 301 298 295 291
284 282 283 283 282 281 277 271 263 253 243 237 230 225 224 224 225 225 222 219 217 216 217 217 214 209 207 205 203 201 198 192 189 188 189 189 186 180 174 172 169 166 169 173 172 171 176 180 182 188 193 196 197 198 200 202 205 211 225 242 253 260 270 283 293 294 294 296 297 297 296 295 295 296 296 297 299 301 303 304 304 304 301 296 290
278 278 279 279 278 275 271 266 260 250 241 234 227 221 219 218 218 217 215 215 216 216 216 217 215 209 204 202 200 197 192 187 185 186 186 186 183 178 173 172 171 168 170 174 173 172 178 182 184 189 194 196 197 197 198 202 208 217 233 247 258 267 275 284 290 292 296 299 298 296 295 297 298 297 297 298 299 299 300 303 304 304 302 296 292
273 273 275 276 275 273 270 265 259 249 241 235 228 223 221 221 217 208 201 203 209 211 211 214 213 209 203 200 195 190 186 183 183 183 183 182 180 175 171 172 175 174 175 177 176 175 179 183 187 192 194 195 196 198 199 204 213 224 238 250 261 269 277 284 290 295 301 303 299 296 297 299 299 298 298 300 301 300 299 302 303 303 300 297 296
280 281 281 281 279 275 271 267 260 251 242 234 228 226 223 220 217 210 201 194 194 198 201 204 206 205 202 196 191 186 183 182 182 181 180 178 175 170 168 170 173 172 175 179 180 180 182 184 188 191 194 196 198 200 204 209 217 229 241 253 264 272 280 287 293 297 301 300 297 296 296 297 298 298 298 299 300 299 299 302 303 302 299 298 298
290 287 284 283 282 279 276 271 262 250 241 233 229 226 222 217 214 209 204 200 195 192 191 192 196 199 197 192 188 185 182 181 180 180 178 175 173 170 169 170 170 169 173 178 181 183 186 188 190 192 194 198 200 203 206 210 217 228 240 254 268 278 285 292 299 303 302 296 292 292 296 299 301 302 300 297 297 297 298 301 302 300 297 298 300
281 279 278 279 281 281 280 276 267 253 242 235 229 223 217 214 211 205 201 199 194 190 185 179 181 187 190 187 186 185 183 181 180 178 176 175 175 174 172 172 171 170 171 175 179 183 186 189 192 194 195 198 200 202 206 209 215 227 242 257 272 283 292 300 301 297 290 287 290 297 302 304 303 302 299 296 297 299 300 300 299 298 299 302 303
274 274 274 275 275 275 273 272 269 258 242 231 224 217 211 210 207 202 200 196 190 187 182 175 174 179 181 180 181 182 181 179 177 177 178 178 177 174 170 169 169 168 170 174 180 183 185 187 191 193 194 196 198 201 206 211 218 231 247 261 275 287 296 300 296 288 285 290 298 304 305 303 301 301 300 297 298 300 301 300 299 299 303 306 305
276 275 274 272 270 267 264 263 260 250 233 220 213 208 205 205 202 199 198 194 189 185 180 176 177 178 175 173 176 177 177 177 177 178 177 174 169 165 164 166 167 168 171 176 180 183 185 187 189 191 192 194 196 202 209 214 223 238 253 267 281 291 297 296 294 294 296 300 305 306 305 302 302 303 302 300 300 302 301 299 300 303 306 306 305
278 278 279 279 278 275 272 267 255 237 219 209 204 200 200 201 199 197 194 189 187 186 181 178 179 177 174 174 174 175 177 178 175 168 161 156 156 160 165 168 170 171 174 177 179 183 186 186 186 189 191 194 199 205 212 221 231 242 256 271 283 291 297 297 296 299 303 305 307 307 306 305 306 306 304 303 303 303 300 299 304 307 307 305 304
278 278 278 278 277 276 276 272 256 231 212 205 200 197 198 198 196 194 192 188 186 184 179 178 177 174 174 176 177 177 176 172 163 158 155 155 159 164 168 171 173 174 175 177 179 182 184 184 185 188 191 195 202 209 217 229 238 247 261 274 281 288 293 296 299 303 306 307 309 308 307 307 308 307 306 307 306 302 298 300 306 308 306 305 305
276 274 272 271 268 265 265 262 247 223 210 205 199 196 196 195 192 191 190 186 182 177 174 173 171 170 173 176 176 173 169 162 156 154 155 158 161 164 166 169 173 175 177 179 180 181 182 182 184 187 190 197 205 213 222 234 244 252 263 272 279 285 291 297 303 308 309 309 309 308 307 307 307 306 308 309 305 301 301 306 309 309 307 307 306
271 268 267 265 261 258 258 252 234 213 204 201 197 194 192 190 189 188 186 180 177 174 169 165 163 166 171 171 165 159 155 152 152 153 154 156 160 162 165 170 174 177 179 179 179 180 180 180 181 186 191 198 208 219 230 240 250 258 265 273 280 285 291 300 308 312 313 311 309 308 307 307 309 312 314 311 305 303 308 312 311 309 308 307 307
265 262 261 258 255 256 255 244 224 209 201 197 193 189 186 184 184 182 179 174 172 168 163 159 160 162 158 152 149 149 149 149 151 153 154 156 159 163 167 172 175 177 177 177 176 177 178 178 181 186 192 200 212 226 236 246 256 261 267 275 282 287 296 305 312 315 315 311 309 309 309 309 311 315 315 312 307 309 314 313 310 309 309 308 307
262 257 256 255 253 252 246 230 212 199 191 185 181 179 177 177 176 173 169 166 161 157 156 157 157 152 141 139 143 147 147 149 153 155 155 157 161 164 168 172 173 175 175 175 174 175 176 178 182 187 193 204 217 231 242 252 260 265 270 276 284 292 302 310 314 316 315 312 310 311 311 311 312 313 311 308 310 314 314 311 308 308 309 308 307
263 257 255 252 246 236 219 198 185 177 171 168 167 166 167 168 165 162 159 155 151 150 151 149 145 137 134 137 142 145 147 151 155 157 158 161 163 165 167 169 171 173 173 172 172 173 175 180 185 190 197 209 222 236 248 256 263 269 272 276 284 294 304 311 314 315 316 315 314 311 310 312 313 312 308 308 315 316 312 308 307 308 308 308 308
265 257 249 239 219 190 171 162 159 158 157 157 155 153 152 150 147 145 144 143 143 144 141 136 134 134 136 139 143 145 149 154 157 159 162 164 164 165 167 169 170 171 170 169 171 175 179 184 190 195 205 218 229 241 253 262 270 275 277 279 286 293 300 308 311 312 315 318 317 313 311 312 311 309 309 314 317 315 309 307 308 310 310 310 309
303 200 150 145 137 133 134 136 136 135 134 134 134 134 134 133 133 133 135 137 139 138 135 132 133 135 138 140 144 146 150 153 157 160 163 165 165 166 167 168 169 169 169 169 173 179 185 191 199 206 217 230 242 252 262 271 277 281 283 284 286 292 299 306 309 311 317 321 320 316 314 311 307 307 314 319 317 312 308 307 309 312 312 312 312
65 79 89 94 97 102 107 111 114 116 118 119 119 120 122 124 125 128 131 133 135 135 134 134 135 137 139 143 146 149 152 155 159 162 164 164 165 166 166 166 167 168 170 174 179 185 191 198 208 219 230 245 259 268 276 283 288 291 291 290 291 295 301 302 305 312 320 322 319 315 311 308 306 311 318 318 314 310 309 309 311 313 314 314 314
68 76 82 84 87 93 98 101 103 106 111 114 114 114 116 119 122 126 129 130 130 130 133 136 138 141 144 147 148 151 154 158 161 162 164 164 166 166 166 166 167 169 173 179 185 190 197 206 216 229 244 260 273 281 288 294 296 296 297 298 299 301 302 302 308 319 325 323 318 313 309 307 311 317 319 316 313 311 310 311 314 316 316 315 316
70 75 79 82 86 90 95 98 100 103 108 112 114 115 117 118 121 126 131 132 132 134 136 139 141 143 146 149 149 151 155 159 162 163 164 166 167 167 166 167 169 172 178 184 188 195 204 214 225 239 256 269 281 288 293 298 299 299 301 303 306 309 312 317 321 324 326 324 319 313 309 311 318 320 319 315 312 310 311 314 316 317 317 318 317